Location: Gilevgi
(36.8751°N, 30.0581°E)
Time: 20:24:32
(UTC+00:00)

IRS-P3 - Pass Details

Date: 19 March 2026
Orbit: 810 x 816 km, 99.0° (Epoch: 21 April)

Event Time Altitude Azimuth Distance (km) Brightness Sun altitude
Rises 16:54:26 0° 186° (S) 3,326 7.3 -9.6°
Reaches altitude 10° 16:56:55 10° 194° (SSW) 2,398 6.7 -10.1°
Maximum altitude 17:01:50 38° 261° (W) 1,229 5.8 -11.0°
Drops below altitude 10° 17:06:46 10° 329° (NNW) 2,411 7.2 -12.0°
Sets 17:09:17 0° 338° (NNW) 3,346 7.8 -12.5°
